Powrót do katalogu

STARLINK-31374

AktywnyŁącznośćVLEO
NORAD 59404·PAYLOAD·🇺🇸 United States

Wystrzelony Apr 5, 2024 z Cape Canaveral Space Force Station

Loading…

Następne Przeloty (najbliższe 24 godziny)

TLE

ŚwieżeSource: CelesTrak SupGP

Epoka: Sep 14, 2026, 21:18 UTC

1 59404C 24064G   26257.88798611  .00033163  00000+0  12013-2 0  2579
2 59404  43.0013  16.6215 0001405 273.7071 104.4216 15.27559229    19

Śledź STARLINK-31374 w czasie rzeczywistym z AllMySat

Download on the App Store